Orbital Elements at Epoch 2459200.5 (2020-Dec-17.0) TDB
Reference: JPL 18 (heliocentric ecliptic J2000)
Element | Value | Uncertainty (1-sigma) | Units |
e | .2024878562857916 | 4.7867e-08 | |
a | 2.678114879179106 | 1.9482e-08 | au |
q | 2.135829138407047 | 1.2968e-07 | au |
i | 12.21482701277686 | 7.6407e-06 | deg |
node | 131.3892185456048 | 2.3545e-05 | deg |
peri | 254.6835082086688 | 2.9694e-05 | deg |
M | 129.0854217620527 | 1.9887e-05 | deg |
tp | 2458626.493344845762 (2019-May-22.99334485) | 8.5121e-05 | TDB |
period | 1600.819000587349 4.38 | 1.7468e-05 4.782e-08 | d yr |
n | .2248848869659307 | 2.4539e-09 | deg/d |
Q | 3.220400619951165 | 2.3427e-08 | au |
|
| | Orbit Determination Parameters
Additional Information
|